Content
SEND FEEDBACK

Daily
Averages
Monthly
Summary
Canada

VANCOUVER, BRITISH COLUMBIA


Home > North America > Canada > British Columbia
Elevation: 7 feet     Latitude: 49 11N     Longitude: 123 10W

WEATHER
 
SELECT A DAY
Number of Records: 254,882;   Date Range: 5/15/97 - 12/18/14
 
SHARE

PRINT THIS DATA

[ ← Previous Day ]
WEATHER ALMANAC - AUGUST 18, 2014
[ Next Day → ]
[ °C ]   °F
Weather ElementAverageHighLow
Temperature67.2 °F73.4 °F (9:00 am)59 °F (2:00 am)
Dewpoint62.4 °F66.2 °F (1:00 pm)59 °F (12:00 pm)
Humidity84.5 %100 % (12:00 am)71 % (11:00 pm)
Barometer29.96 in30.05 in (9:00 pm)29.82 in (6:00 pm)
Wind Speed6.7 mph15 mph (9:00 am)
Weather ElementAverage
Visibility16.2 mi
Wind DirectionSSW (188 °)

Weather ElementTotal
Precipitation---
Cooling Degree Days1.2 (Base 65)
Growing Degree Days16.2 (Base 50)
Averaged from 30 records on August 18, 2014
WEATHER CONDITIONS BREAKOUT
WIND DIRECTION BREAKOUT
WEATHER BY HOUR - AUGUST 18, 2014
[ °C ]   °F
Local TimeTemperatureDewpointHumidityBarometerVisibilityWind DirectionWind SpeedGust SpeedPrecipitationEventsConditions
12:00 AM68.0 °F62.6 °F83 %30.05 in15.0 miSouth (170°)3.5 mphClear
1:00 AM64.4 °F62.6 °F94 %30.04 in15.0 miNNE (20°)3.5 mphClear
2:00 AM64.4 °F60.8 °F88 %30.04 in15.0 miEast (100°)3.5 mphClear
3:00 AM64.4 °F62.6 °F94 %30.04 in15.0 miESE (120°)2.3 mphClear
4:00 AM62.6 °F60.8 °F94 %30.04 in15.0 miEast (100°)3.5 mphClear
5:00 AM62.0 °F60.0 °F90 %30.03 in15.0 miEast (90°)6.9 mph
5:00 AM60.8 °F59.0 °F94 %30.02 in15.0 miEast (90°)6.9 mphClear
6:00 AM59.0 °F59.0 °F100 %30.02 in15.0 miCalmPartly Cloudy
6:11 AM60.8 °F59.0 °F94 %30.02 in12.0 miCalmPartly Cloudy
6:37 AM60.8 °F60.8 °F100 %30.03 in8.0 miCalmMostly Cloudy
6:47 AM62.6 °F60.8 °F94 %30.02 in8.0 miCalmMostly Cloudy
7:00 AM62.6 °F60.8 °F94 %30.02 in8.0 miCalmScattered Clouds
8:00 AM66.2 °F64.4 °F94 %30.02 in10.0 miWNW (300°)10.4 mphScattered Clouds
9:00 AM68.0 °F64.4 °F88 %30.01 in15.0 miWNW (290°)15.0 mphPartly Cloudy
10:00 AM69.8 °F64.4 °F83 %30.00 in15.0 miWNW (290°)10.4 mphPartly Cloudy
11:00 AM71.6 °F64.4 °F78 %29.99 in15.0 miWest (280°)10.4 mphScattered Clouds
11:00 AM71.0 °F64.0 °F74 %29.99 in15.0 miWest (280°)9.2 mphScattered Clouds
12:00 PM73.4 °F64.4 °F73 %29.98 in15.0 miWNW (290°)11.5 mphMostly Cloudy
1:00 PM69.8 °F62.6 °F78 %29.97 in15.0 miWNW (300°)12.7 mphMostly Cloudy
2:00 PM71.6 °F66.2 °F83 %29.96 in20.0 miWNW (290°)11.5 mphMostly Cloudy
3:00 PM69.8 °F62.6 °F78 %29.93 in20.0 miWNW (300°)12.7 mphMostly Cloudy
5:00 PM72.0 °F65.0 °F71 %29.91 in19.0 miWNW (290°)9.2 mphScattered Clouds
5:00 PM71.6 °F64.4 °F78 %29.90 in20.0 miWest (280°)10.4 mphMostly Cloudy
6:00 PM71.6 °F62.6 °F73 %29.88 in20.0 miWNW (300°)5.8 mphMostly Cloudy
7:00 PM69.8 °F62.6 °F78 %29.86 in30.0 miWSW (250°)4.6 mphOvercast
8:00 PM69.8 °F60.8 °F73 %29.85 in30.0 miWSW (240°)4.6 mphOvercast
9:00 PM69.8 °F62.6 °F78 %29.84 in20.0 miSW (230°)8.1 mphMostly Cloudy
10:00 PM68.0 °F62.6 °F83 %29.83 in20.0 miWest (270°)6.9 mphMostly Cloudy
11:00 PM69.0 °F63.0 °F76 %29.83 in15.0 miSW (230°)8.1 mphMostly Cloudy
11:00 PM69.8 °F62.6 °F78 %29.82 in15.0 miWSW (240°)10.4 mphMostly Cloudy
Hourly data recorded from CZBB, located miles away from Vancouver, British Columbia







STORIES FROM OUR PARTNERS